GFSSE_925_thetae_003.txt.gz
Theta_e
352 356 351 354 350 349 350 350 350 350 350 346 343 343 345 345 350 348 350 354 352 353 355 354 353 352 351 347 348 350 346 348 349 351 351 350 351 345 343 344 345 345 348
354 357 354 355 350 348 348 349 349 350 349 347 344 343 343 345 351 351 350 354 352 351 347 348 350 349 352 348 353 352 348 351 352 352 352 352 351 350 344 347 345 346 348
355 358 359 354 349 348 348 349 350 350 350 347 345 344 344 345 347 352 354 355 354 354 347 345 346 346 352 351 351 352 348 350 352 349 346 348 348 348 350 345 340 349 348
356 358 357 353 348 349 349 350 351 351 350 348 346 345 346 347 347 352 354 353 354 353 352 347 345 347 347 349 352 352 349 352 345 345 350 347 347 348 350 349 349 349 348
353 353 356 350 349 350 349 350 351 351 351 349 346 347 347 349 349 354 353 350 354 353 349 347 350 349 352 353 352 351 351 348 344 350 349 347 346 349 351 349 347 346 346
353 352 357 350 350 354 351 351 351 351 352 350 349 349 348 348 354 352 353 354 351 354 354 353 347 352 351 352 352 350 350 343 345 351 347 348 349 347 348 349 349 347 343
351 361 359 353 354 353 353 350 352 351 352 352 350 354 352 352 353 353 350 353 351 352 353 350 350 352 352 351 351 351 348 339 351 346 348 350 351 346 350 351 349 344 345
352 360 361 355 355 354 349 345 347 353 354 354 351 355 352 348 347 349 349 350 349 352 350 348 349 352 351 351 351 348 344 342 346 345 348 350 345 349 350 349 348 347 346
352 360 361 358 357 353 351 343 342 345 349 352 350 346 346 347 351 351 347 346 348 349 345 347 349 352 351 351 349 343 341 344 348 344 349 350 341 349 350 349 348 347 346
356 360 358 359 356 356 355 349 342 341 342 344 345 345 349 348 347 348 348 346 350 346 345 346 349 352 351 350 349 344 339 339 348 345 346 347 338 347 350 349 347 347 346
358 356 357 358 356 358 356 355 347 344 343 344 344 346 345 350 351 352 351 351 346 346 347 346 347 349 350 350 347 348 343 344 347 345 348 345 335 346 349 348 347 346 346
356 355 355 356 356 355 356 352 352 352 349 348 344 337 349 351 348 351 351 349 346 347 348 347 349 348 346 349 348 346 346 345 346 346 349 346 338 346 349 347 346 345 346
357 356 355 355 356 356 355 353 352 351 351 347 340 343 336 342 346 348 351 351 349 348 351 348 351 350 349 350 349 348 348 349 348 346 350 345 337 344 348 347 344 344 345
351 351 351 352 354 354 354 351 350 351 351 350 347 336 334 333 338 347 352 352 351 351 350 350 351 351 350 350 351 352 350 347 349 350 350 345 339 344 349 346 344 343 343
351 352 353 354 354 353 353 348 348 351 351 349 348 343 339 341 345 345 348 352 353 350 351 349 350 350 350 349 350 352 351 350 350 349 349 347 343 341 346 347 342 342 341
352 352 352 354 355 354 352 351 348 346 351 348 348 344 337 346 348 346 343 349 349 350 348 349 349 350 349 349 349 351 349 350 350 349 348 348 342 342 342 344 342 341 340
352 352 353 356 355 354 354 352 349 346 349 347 346 347 348 347 347 347 345 345 348 344 348 347 350 347 350 351 349 348 348 350 350 351 349 350 348 343 339 338 343 342 342
351 352 353 352 354 354 352 349 346 344 344 343 345 346 346 347 346 345 345 343 346 349 344 345 349 351 349 350 349 349 347 349 349 349 349 350 350 348 342 341 342 343 341
352 353 353 352 352 353 351 348 346 345 345 343 342 343 345 346 348 347 344 342 344 348 349 345 345 349 348 348 350 349 349 350 350 349 347 350 351 349 348 347 342 342 341
352 354 354 353 352 351 349 349 347 346 344 343 341 344 343 344 346 345 346 345 346 344 348 345 344 348 348 348 351 351 352 350 351 349 349 349 350 349 345 347 345 344 342
354 354 354 352 351 351 348 347 348 346 344 342 341 339 345 345 344 345 347 345 346 345 348 347 345 346 352 353 350 349 348 349 350 349 346 350 348 349 344 346 346 346 343
356 355 354 352 353 351 349 348 348 347 346 344 341 340 342 343 344 344 347 346 345 346 346 348 347 348 352 350 349 345 351 348 347 347 349 349 347 349 347 348 347 347 346
356 356 355 355 353 352 349 348 347 346 346 342 341 342 343 343 342 343 345 347 347 346 346 347 347 349 351 349 350 346 352 353 349 345 348 349 349 348 348 347 350 349 348
356 356 355 354 354 352 350 346 345 344 342 340 340 342 344 343 342 344 343 346 347 346 345 346 347 343 349 350 347 346 346 347 352 351 347 348 350 346 346 347 348 346 348
354 354 353 354 353 350 348 347 342 341 340 341 342 343 344 343 343 343 343 344 347 347 345 344 343 346 349 349 345 344 345 344 343 342 350 348 347 347 346 346 346 345 346
353 351 349 350 351 348 346 345 342 341 340 342 343 343 343 343 342 343 344 345 346 346 346 346 344 344 348 344 345 345 344 343 343 342 346 345 345 345 345 343 344 344 344

GFSSE_925_thetae_006.txt.gz
Theta_e
356 356 350 352 351 351 350 350 350 349 345 343 342 343 344 345 345 351 350 350 353 353 354 354 351 345 347 345 345 344 343 344 345 343 342 344 344 342 345 346 345 347 348
358 357 349 349 350 350 351 350 350 350 348 344 343 343 343 346 346 350 352 352 353 354 354 352 352 351 351 350 350 345 344 348 349 349 351 350 346 344 347 348 345 347 348
358 358 354 348 349 349 349 350 350 349 349 345 343 344 343 344 345 351 352 352 350 353 347 346 344 349 350 352 352 346 348 349 348 345 348 348 348 348 349 344 340 347 347
360 359 358 349 349 348 349 349 350 350 349 346 344 344 345 345 344 347 355 353 353 353 349 345 345 347 348 351 351 349 346 346 348 344 349 347 347 348 351 350 347 348 347
359 358 356 349 349 349 350 350 351 350 349 347 345 346 346 346 346 352 349 350 353 350 347 347 348 350 349 350 351 346 344 345 344 347 347 347 346 350 349 345 348 345 347
355 358 354 348 349 349 350 349 350 351 349 348 346 347 347 347 350 351 346 351 349 350 350 347 347 350 352 352 349 348 342 344 346 350 349 347 347 346 343 349 349 348 342
360 359 353 340 347 348 350 350 350 350 350 349 349 349 349 349 350 348 352 348 350 350 350 352 346 353 351 352 348 346 340 342 350 347 349 349 347 341 349 349 347 347 340
361 361 356 346 348 351 350 350 350 350 352 351 351 351 351 348 346 352 347 347 346 347 351 348 348 351 351 352 351 345 340 341 349 349 350 350 342 343 350 347 347 347 339
362 361 357 357 355 353 351 348 348 349 349 350 350 351 349 344 346 348 346 345 345 348 346 348 349 351 348 351 350 343 339 338 350 350 349 350 341 346 350 348 345 346 346
359 362 359 357 357 356 355 346 342 344 345 346 349 345 342 343 347 349 346 348 345 345 344 345 348 351 348 349 345 342 340 340 345 349 351 348 343 347 349 348 347 344 346
360 360 359 359 357 355 355 347 343 342 340 339 347 345 345 347 346 351 347 351 345 345 345 345 347 347 348 348 349 342 339 338 345 348 349 347 339 343 349 347 344 343 344
358 359 357 356 356 353 355 352 348 347 345 347 350 349 348 349 350 352 352 350 348 344 345 345 347 346 346 349 347 345 341 343 346 347 346 342 337 340 345 347 344 344 345
357 356 356 356 355 356 354 351 350 351 350 344 345 347 346 351 350 349 348 350 346 345 346 346 348 346 348 349 349 345 344 347 347 348 348 345 340 337 342 346 345 344 344
355 356 356 356 355 351 352 350 349 352 352 345 345 344 344 343 337 346 349 350 349 351 351 351 351 350 350 349 348 347 347 348 349 348 349 346 339 334 343 346 346 344 345
351 352 352 354 353 353 352 347 344 350 352 352 347 345 342 336 341 345 347 349 351 348 351 348 349 348 349 348 347 348 348 348 347 349 347 347 338 334 341 346 347 346 344
349 350 353 354 355 354 352 352 350 349 349 346 347 346 345 342 346 350 348 343 349 347 346 347 348 350 348 348 347 348 350 349 348 350 348 349 345 339 344 344 344 343 345
351 352 354 355 355 355 353 353 349 347 346 348 347 347 346 344 343 347 345 346 346 347 345 346 349 348 347 348 347 348 349 349 350 349 349 347 345 342 340 345 344 341 341
352 352 354 354 354 355 355 353 351 348 347 347 343 343 347 346 346 348 346 346 346 347 344 345 346 347 347 350 349 348 348 348 350 349 349 348 349 344 342 340 340 342 342
354 353 354 354 355 355 354 352 349 347 346 346 345 345 346 346 346 346 348 347 344 346 349 345 342 346 349 348 346 346 347 348 347 350 349 348 348 348 347 339 339 342 343
353 354 355 354 354 355 353 351 349 348 347 346 343 343 345 343 343 346 347 346 344 342 347 347 344 340 346 347 345 346 346 347 351 348 348 348 349 346 349 347 344 341 341
353 355 356 355 354 352 351 349 347 347 346 346 345 343 345 343 344 344 346 345 344 345 344 345 344 343 347 347 347 346 345 345 349 349 346 346 346 348 345 345 344 340 342
356 356 356 355 354 351 349 347 346 347 346 344 344 341 338 343 343 345 344 347 346 344 345 343 345 343 345 345 347 344 347 348 349 349 349 348 345 346 346 344 343 342 343
357 357 356 354 352 351 349 347 347 346 343 342 340 339 339 338 342 343 344 344 344 345 344 345 346 344 344 345 345 345 348 353 348 346 346 346 345 346 347 346 345 345 346
358 357 356 354 353 351 348 347 346 345 342 342 340 339 339 341 342 342 343 343 345 346 344 347 346 344 343 345 343 344 346 346 350 351 343 345 345 345 346 347 345 345 345
355 356 355 353 354 352 351 345 345 341 339 340 339 340 343 342 341 343 342 342 345 347 344 344 346 346 342 341 343 343 345 346 343 345 349 346 345 344 345 346 346 345 345
351 352 356 353 352 350 347 346 344 343 343 344 343 344 343 343 343 342 342 344 345 345 345 343 345 346 342 343 343 343 344 343 342 344 346 347 346 346 346 345 346 345 345

GFSSE_925_thetae_009.txt.gz
Theta_e
355 350 351 351 350 347 347 347 345 344 343 341 340 339 338 342 344 341 346 347 350 348 347 345 346 344 344 345 344 343 345 343 347 343 340 338 342 346 349 348 347 347 346
351 348 351 351 350 349 349 349 348 345 343 342 342 339 340 340 345 348 349 352 353 352 353 349 347 346 343 345 344 343 344 344 346 350 346 350 350 346 347 348 347 346 346
348 348 351 351 351 350 350 349 349 348 344 343 344 341 340 339 343 345 349 348 348 348 350 346 346 350 345 349 344 343 344 346 343 341 342 346 346 348 350 346 348 347 346
349 348 350 350 350 349 349 349 349 348 346 344 344 343 343 341 340 352 350 349 349 349 347 347 346 347 347 346 346 344 345 346 344 344 343 343 350 351 349 348 348 347 346
357 349 349 349 348 348 349 348 349 348 347 345 344 344 344 343 341 351 351 351 348 348 347 347 348 344 345 347 345 344 345 346 344 348 347 347 344 350 348 348 348 347 345
358 346 347 348 348 348 348 349 349 349 348 346 345 345 345 345 345 348 346 345 348 347 347 348 352 350 346 346 345 343 344 343 345 348 349 346 342 345 348 348 348 348 345
357 344 341 346 347 348 348 348 348 349 348 347 345 346 346 346 347 343 346 350 347 350 351 347 348 352 348 350 343 342 344 344 348 346 347 347 341 341 350 349 348 346 345
356 347 338 342 346 348 348 349 349 349 349 348 347 347 348 348 347 347 350 348 349 346 351 348 347 353 345 348 345 342 344 343 348 347 347 347 339 341 349 345 347 345 345
355 349 343 343 346 348 349 349 348 349 350 349 349 349 349 348 343 349 348 346 346 346 348 348 347 351 346 346 345 340 343 344 347 347 348 347 339 345 349 347 347 342 345
357 352 350 352 352 352 350 348 347 347 349 351 352 350 348 347 348 350 344 345 345 346 344 348 349 350 348 346 343 341 342 342 347 348 346 347 339 343 349 347 347 346 338
358 356 354 351 352 349 344 344 343 345 350 355 355 354 347 349 351 349 345 346 345 346 345 345 350 348 346 346 342 340 342 341 342 347 349 344 340 342 346 345 345 344 343
360 360 357 356 355 353 350 344 343 345 349 350 347 348 348 344 346 350 349 348 351 344 347 346 346 347 347 346 342 340 341 338 342 347 347 346 338 341 342 344 344 342 345
358 359 358 356 354 354 355 351 344 345 346 344 343 349 345 350 350 351 351 350 349 346 344 346 346 346 345 348 345 340 338 338 348 347 348 345 343 337 343 343 341 343 343
356 354 356 355 355 354 353 351 348 348 347 344 342 344 345 348 349 347 350 348 349 345 344 347 346 346 345 349 350 348 340 343 347 347 346 345 343 338 342 345 345 342 342
356 356 355 355 354 352 351 350 349 348 348 348 345 346 344 340 344 337 347 348 349 349 350 351 350 349 349 350 348 348 346 347 348 348 347 345 345 339 339 343 344 343 345
354 356 355 354 352 352 351 349 344 333 346 348 344 341 344 343 337 341 345 347 348 347 349 347 348 348 348 348 348 347 347 347 347 348 347 345 342 340 338 341 344 345 345
350 353 354 353 353 353 352 350 348 348 348 347 340 333 340 345 341 343 345 346 344 346 346 346 347 348 348 348 347 347 348 347 348 347 346 346 346 343 338 340 342 344 345
350 352 353 353 355 353 351 354 352 350 349 347 346 339 343 347 344 344 344 343 342 344 347 346 346 348 347 348 348 347 348 348 349 346 348 347 346 345 341 341 339 343 341
350 352 353 354 354 354 355 354 352 349 348 349 347 346 345 347 346 344 343 344 344 344 346 344 346 346 346 348 348 347 348 347 348 348 347 348 348 346 343 341 342 341 342
351 352 354 355 354 354 353 353 350 349 346 346 345 344 346 344 343 343 344 346 347 345 343 346 344 344 344 348 347 345 346 346 346 347 347 348 347 347 347 345 340 339 340
354 355 353 353 354 354 354 352 350 349 347 346 346 346 344 344 343 342 342 344 345 345 343 344 345 343 342 347 346 345 346 346 343 344 346 347 348 347 346 342 346 340 341
354 354 354 354 354 352 351 350 348 346 345 346 344 344 344 342 342 342 342 344 345 345 344 343 343 343 344 347 345 344 342 343 344 346 349 346 345 345 345 346 344 344 340
356 356 356 354 353 351 350 348 347 346 345 344 342 340 338 339 339 341 342 342 344 343 344 344 344 344 343 345 343 343 343 343 345 345 350 348 347 345 345 345 344 344 342
356 356 356 354 352 350 349 346 345 345 344 339 339 341 340 337 338 340 342 340 342 345 344 343 343 344 343 342 346 344 344 344 342 343 345 345 346 346 346 345 345 345 343
357 357 356 353 351 349 348 345 344 343 342 342 342 341 341 339 338 341 341 340 342 343 343 343 343 343 344 342 342 341 343 344 341 343 342 341 344 345 345 346 345 344 343
357 354 353 351 350 348 347 343 341 342 340 341 341 341 342 341 340 342 342 342 342 342 342 343 343 343 344 342 338 340 341 341 341 342 339 340 342 343 343 345 345 344 343

GFSSE_925_thetae_012.txt.gz
Theta_e
354 354 350 349 347 344 343 342 342 341 341 338 340 342 344 344 344 346 348 345 345 345 349 349 346 348 347 345 347 347 345 345 350 349 349 348 348 347 346 347 347 346 345
351 353 350 349 347 347 344 343 343 342 341 339 339 339 342 341 345 346 345 349 351 348 347 349 346 345 349 344 347 346 345 351 350 350 350 350 350 350 349 347 347 345 345
350 352 351 348 348 348 347 345 344 343 342 340 339 338 338 340 345 345 349 352 353 353 353 351 348 342 346 345 345 349 351 350 349 350 349 347 347 349 349 347 346 347 346
348 351 350 349 350 350 348 348 346 344 343 342 341 339 336 337 342 347 346 345 349 348 352 350 350 344 344 344 344 348 346 346 350 349 344 347 350 350 349 347 346 346 346
351 350 349 350 350 350 349 348 347 345 344 343 343 343 342 336 341 348 351 347 350 350 347 351 352 347 343 342 344 346 344 345 349 342 346 349 347 349 348 348 348 346 345
350 351 350 349 349 349 348 348 348 347 344 344 344 344 344 344 343 349 349 348 349 346 349 350 352 349 344 342 344 345 344 342 347 347 348 347 344 348 349 348 347 344 343
350 350 349 347 348 348 348 348 348 348 345 345 344 345 346 347 349 347 344 350 349 348 348 349 352 353 347 342 343 344 341 344 347 348 349 345 340 343 348 348 348 346 344
345 348 348 347 347 347 348 348 348 348 346 346 345 346 347 347 346 343 350 348 351 349 349 348 348 352 352 345 343 344 343 345 348 348 346 345 338 343 349 348 346 345 342
344 348 348 347 347 347 348 348 349 348 347 347 347 348 348 347 347 347 348 346 347 347 351 347 347 351 348 344 343 342 342 345 348 347 346 346 338 343 348 345 346 345 341
347 343 347 347 347 347 348 348 348 349 349 348 349 351 350 352 350 351 347 346 343 347 347 349 347 349 347 345 342 341 341 344 347 347 347 347 340 343 348 347 345 343 344
350 346 344 347 347 347 348 349 347 348 350 351 354 353 352 348 349 351 347 344 345 345 346 348 346 349 348 345 342 342 341 342 346 347 346 347 339 343 347 347 344 341 339
354 350 347 349 350 350 348 346 346 350 352 351 352 353 346 340 342 346 346 345 347 348 350 347 347 346 348 345 346 343 342 341 342 346 348 347 341 342 341 342 344 344 340
356 355 353 351 349 345 342 341 340 347 348 350 350 351 342 346 348 350 350 349 346 348 348 347 346 346 344 346 344 343 342 340 342 347 342 347 340 339 340 342 342 341 345
358 357 356 355 354 353 353 348 340 343 342 342 339 344 348 349 350 350 349 349 348 348 345 347 344 345 346 345 346 343 342 340 346 347 347 347 344 340 341 343 341 342 343
358 358 357 354 354 353 353 351 348 344 344 344 345 346 346 346 348 345 346 348 348 349 345 346 346 345 345 345 348 348 346 341 346 347 345 347 344 341 338 342 344 340 342
355 355 355 355 355 353 353 350 350 348 347 347 346 342 343 342 342 342 338 343 347 348 348 349 348 348 347 349 349 348 347 346 347 346 346 345 345 343 339 338 346 344 343
354 354 355 355 355 351 351 350 349 347 346 347 348 346 343 343 344 342 337 341 343 348 346 347 348 348 347 347 348 348 347 346 348 347 346 346 345 341 342 338 346 345 346
353 355 355 354 354 353 350 349 347 342 341 346 346 346 338 338 342 342 341 343 342 345 345 344 346 347 348 348 347 347 347 347 346 346 347 347 346 344 345 340 341 344 345
353 355 353 354 353 353 353 353 351 350 349 348 347 345 340 332 345 345 343 343 341 342 343 345 345 344 347 347 347 348 347 347 348 348 345 347 346 346 346 344 340 340 339
350 351 351 351 351 353 353 352 351 350 348 347 348 346 345 345 343 344 344 343 342 342 343 344 343 343 345 345 346 347 346 346 346 346 347 347 347 347 346 343 339 340 337
350 350 351 353 353 354 353 352 351 349 347 346 345 345 344 343 344 343 343 342 343 344 344 343 343 344 345 346 346 346 345 346 346 346 347 347 348 347 347 346 343 340 337
352 352 353 355 354 354 354 353 350 348 346 345 344 343 343 343 343 343 343 342 340 344 346 344 343 344 343 343 343 342 341 342 343 342 344 347 347 347 347 346 345 343 343
347 351 354 353 353 353 351 350 348 346 346 345 343 342 341 340 339 340 341 341 341 340 345 345 343 344 343 342 343 341 341 339 341 341 346 347 347 346 346 345 345 344 344
333 349 353 354 353 351 349 347 346 344 344 342 340 338 337 339 339 339 339 341 340 340 344 343 343 343 343 343 343 341 343 342 340 340 339 342 345 346 346 345 345 345 345
333 348 353 352 351 349 347 344 343 342 342 341 340 341 341 340 340 338 339 340 341 340 342 343 343 343 342 342 342 342 342 343 339 340 340 339 341 343 345 345 345 345 345
344 353 352 351 349 347 345 340 339 339 337 339 340 340 341 341 341 338 339 341 340 340 341 343 343 343 342 343 342 342 341 341 341 341 340 340 339 341 343 344 345 345 344

GFSSE_925_thetae_015.txt.gz
Theta_e
354 350 348 346 345 344 343 341 340 339 338 339 341 344 345 345 344 344 346 351 352 352 353 353 350 349 348 346 345 346 346 347 350 349 349 348 348 348 346 345 344 343 342
353 350 347 346 346 343 341 341 340 338 339 340 340 341 343 344 347 346 346 351 353 352 352 352 351 347 346 347 346 348 348 350 349 349 349 349 349 347 347 346 344 344 346
352 350 348 345 345 344 342 341 341 339 338 341 341 340 342 346 349 351 352 353 352 353 352 353 353 352 348 350 347 351 351 348 347 350 349 347 348 348 348 346 346 344 345
350 350 348 346 345 344 343 343 342 341 339 339 341 343 347 349 351 354 353 352 353 353 353 353 352 352 351 346 348 351 351 350 349 349 345 346 350 349 347 345 344 346 345
351 350 348 347 348 347 345 344 343 342 342 341 340 340 346 352 353 351 353 351 348 348 352 353 353 345 350 347 350 350 350 349 350 344 347 348 347 349 346 345 345 346 345
352 351 349 348 349 348 348 347 344 344 343 342 343 343 344 351 352 353 353 353 352 350 347 351 350 346 345 346 345 348 348 350 346 347 348 347 346 347 347 346 345 345 344
352 352 352 350 349 349 348 348 347 344 344 344 344 345 346 349 352 351 349 351 351 350 349 349 347 347 343 348 344 347 345 348 345 346 348 343 344 346 348 347 344 344 345
351 351 351 350 349 349 348 348 348 345 344 344 345 345 346 347 345 341 346 348 349 349 349 349 349 352 346 346 344 343 341 348 348 347 348 344 341 346 349 347 346 343 345
350 349 349 349 348 348 348 348 348 347 346 345 346 345 345 348 345 343 347 347 348 346 348 348 349 349 345 344 344 342 343 347 347 347 347 343 339 346 349 347 346 339 344
352 350 349 348 348 348 349 348 348 348 346 346 347 347 351 351 349 351 346 345 345 345 346 346 347 348 342 344 344 343 343 345 347 347 345 345 339 347 350 347 346 340 337
353 349 348 350 350 349 349 349 349 349 348 351 353 353 352 352 350 351 344 342 342 345 345 345 346 346 344 343 344 341 343 345 347 347 347 346 343 344 349 348 344 340 339
351 351 348 347 349 349 349 349 348 350 353 351 352 353 351 349 347 348 347 343 346 348 345 344 345 347 345 343 343 343 343 342 345 346 346 346 343 341 348 347 342 338 344
349 348 346 347 348 349 349 349 347 348 351 350 352 351 350 343 343 349 348 349 347 350 347 346 346 345 344 345 344 343 341 340 343 344 346 346 344 340 348 344 344 342 338
352 349 347 348 349 349 348 346 343 343 350 349 348 347 349 342 346 346 349 349 347 347 347 346 344 344 345 345 346 344 343 341 340 344 346 346 344 340 343 342 344 345 344
355 354 353 352 350 349 346 342 342 340 343 345 346 342 344 344 346 349 349 348 348 348 348 345 344 344 344 344 345 345 343 341 339 346 347 346 345 342 341 344 346 347 346
357 356 356 355 354 353 353 352 349 342 341 342 341 342 344 344 346 346 344 344 346 347 348 346 345 345 344 344 346 345 346 344 340 344 345 345 345 344 342 342 347 347 346
357 356 357 355 354 354 352 352 350 349 346 346 345 344 343 343 343 344 343 338 339 343 347 347 348 348 348 346 346 346 345 347 345 346 345 345 346 344 343 342 340 346 346
355 354 355 354 354 354 353 352 351 349 348 347 347 347 347 344 344 343 343 341 339 342 347 346 346 346 347 347 347 347 347 347 346 347 345 345 345 345 343 342 339 343 345
350 354 353 354 354 353 351 350 349 347 345 340 341 345 346 345 342 342 342 340 341 343 346 345 344 345 346 346 346 347 346 346 347 346 346 345 345 345 345 342 343 340 343
348 350 354 354 354 353 351 351 350 350 349 349 347 346 346 345 341 332 342 343 343 343 344 342 344 344 345 344 345 346 347 347 346 346 346 346 346 346 346 346 344 341 340
342 346 351 354 353 353 352 351 351 350 349 347 346 346 346 345 344 343 343 342 343 343 342 342 341 342 344 343 345 344 346 345 346 346 346 346 347 347 347 346 345 342 340
337 338 349 350 352 351 351 351 350 349 348 347 345 344 344 344 343 343 342 342 342 341 342 344 343 341 342 344 343 341 340 342 345 345 345 345 346 347 347 347 346 345 341
337 343 339 348 351 353 353 352 349 347 346 345 344 342 341 341 342 340 342 342 342 341 339 343 344 342 341 343 343 340 338 342 338 342 343 343 345 347 346 347 347 346 345
337 339 335 347 352 353 351 349 347 345 343 342 341 340 340 337 338 339 339 340 340 341 340 339 343 343 342 341 342 342 340 340 339 335 339 343 345 345 347 346 346 345 345
335 342 344 350 351 350 349 347 343 342 340 339 338 339 340 340 340 340 338 338 339 340 341 339 343 344 342 341 341 341 342 341 340 336 333 336 341 340 341 345 345 345 344
335 335 349 351 350 348 345 341 339 339 337 339 339 339 340 341 341 340 338 337 338 340 341 339 342 343 343 342 341 341 341 342 340 338 336 336 337 338 341 342 343 344 345